Tracking 19242 objects as of 16-Aug-2018
HD Live streaming from Space Station
objects crossing your sky now

FENGYUN 1C DEB

Track FENGYUN 1C DEB now!
10-day predictions


NORAD ID: 29751
Int'l Code: 1999-025AR
Perigee: 761.5 km
Apogee: 892.0 km
Inclination: 98.9 °
Period: 101.3 minutes
Semi major axis: 7197 km
RCS: 0.0183 m2 (small)
Launch date: May 10, 1999
Source: People's Republic of China (PRC)
Launch site: Taiyaun Space Center, China (TSC)

Note: This is SATELLITE DEBRIS
aabbcc
Your satellite tracking list
Your tracking list is empty




NASA's NSSDC Master Catalog

Two Line Element Set (TLE):
1 29751U 99025AR  18227.75446361  .00000018  00000-0  27784-4 0  9996
2 29751  98.8586 252.7658 0090677 320.6892  98.6891 14.21704836600478
Source of the keplerian elements: AFSPC